User: anonymous   Login
Location: Observatorio Las Palmas
(29.0667°N, 110.9333°W)
Time: 05:31:16
(UTC-07:00)
Language:

NOAA 19 - Orbit

View from above orbital plane
View from above orbital plane
View from above satellite
View from above satellite

Ground track
Ground track

The orbit data is extracted from the following two-line orbital elements,

1 33591U 09005A   14304.49984100  .00000254  00000-0  16370-3 0  4448
2 33591 098.9603 249.2185 0015136 094.9529 014.1656 14.11793003295225
Epoch (UTC): 31 October 2014 11:59:46
Eccentricity: 0.0015136
inclination: 98.9603°
perigee height: 842 km
apogee height: 864 km
right ascension of ascending node: 249.2185°
argument of perigee: 94.9529°
revolutions per day: 14.11793003
mean anomaly at epoch: 14.1656°
orbit number at epoch: 29522

The dashed part of the orbit path shows where the satellite is in the earth's shadow,  

DLR